Location: Marcé
(47.5801°N, 0.3280°W)
Time: 18:18:07
(UTC+01:00)

Tiros 1 - Pass Details

Date: 01 December 2021
Orbit: 629 x 664 km, 48.4° (Epoch: 26 January)

Event Time Altitude Azimuth Distance (km) Brightness Sun altitude
Rises 02:32:27 0° 286° (WNW) 2,970 - -57.1°
Reaches altitude 10° 02:34:57 10° 277° (W) 2,062 - -56.8°
Maximum altitude 02:39:12 33° 214° (SSW) 1,101 - -56.2°
Drops below altitude 10° 02:43:28 10° 150° (SSE) 2,069 - -55.7°
Sets 02:45:59 0° 141° (SE) 2,981 - -55.3°
